www.pogodaiklimat.ru

Погода и климат >> Архив погоды >> Мексика >> La Paz


ПОГОДА в La Paz

  • Прогноз погоды в La Paz
  • Монитор погоды в La Paz
  • Климат города

АРХИВ ПОГОДЫ в La Paz

Время (UTC), дата Ветер
(напр.,м/с)
 
Видим.   Явления Облачность Т
(С)
Тd
(С)
f
(%)
Тe
(С)
Тes
(С)
Комфортность P
(гПа)
Po
(гПа)
Тmin
(С)
Tmax
(С)
R
(мм)
R24
(мм)
S
(см)
03 10.12 С 3 2000 м 8/0 2000 м
[As trans Ci fib]
+22.4 +13.2 56 +25 +25 комфорт 1016.4 1014.3
06 10.12 СВ 2 2000 м 4/0 2000 м
[As trans]
+21.7 +15.6 68 +25 +25 комфорт 1017.0 1014.9 +19.7 +26.0
09 10.12 С 3 2000 м 6/0 2000 м
[As trans]
+21.8 +15.7 68 +25 +25 комфорт 1016.6 1014.5
12 10.12 С 2 2000 м 9/0 2000 м
[As trans]
+21.4 +16.6 74 +25 +25 комфорт 1016.6 1014.4 +21.4 +26.0
15 10.12 С 2 25 км 10/0 2000 м
[As op]
+21.3 +17.7 80 +25 +26 комфорт 1018.0 1015.9
18 10.12 С 3 30 км 9/0 2000 м
[Ac und]
+24.3 +18.4 70 +29 +32 душно 1018.4 1016.3 +21.3 +24.3
21 10.12 СЗ 4 25 км 10/0 2000 м
[As trans]
+25.0 +18.5 67 +30 +32 душно 1017.3 1015.2
03 11.12 С 2 2000 м в посл. час морось 9/0 2000 м
[As op]
+22.8 +19.0 79 +29 +29 очень
душно
1018.6 1016.5 0.1
06 11.12 СВ 2 2000 м 9/0 2000 м
[As op]
+22.5 +18.9 80 +28 +28 душно 1019.3 1017.2 +21.3 +26.2
09 11.12 С 1 2000 м 9/0 2000 м
[As op]
+21.7 +18.6 83 +27 +27 душно 1019.1 1017.0
12 11.12 С 2 2000 м 8/0 2000 м
[Ac trans]
+21.2 +17.9 81 +25 +25 комфорт 1019.0 1016.9 +21.2 +26.2
15 11.12 С 2 25 км 6/3 1200 м
[Sc diur, vesp Ci fib]
+21.4 +17.6 79 +26 +26 душно 1020.3 1018.2
18 11.12 С 3 30 км 6/1 1200 м
[Sc diur, vesp Ci fib]
+25.6 +17.5 61 +30 +36 душно 1020.6 1018.5 +21.0 +25.6
21 11.12 СВ 4 30 км 4/0
[Ci fib]
+26.4 +17.1 57 +30 +35 душно 1018.8 1016.7
00 12.12 С 4 25 км 10/1 1000 м
[Sc diur, vesp Ac trans]
+23.8 +15.8 61 +27 +27 жарко 1018.4 1016.3 +21.0 +26.9
03 12.12 С 3 2000 м 6/0 2000 м
[As trans]
+22.4 +18.2 77 +28 +28 душно 1019.2 1017.1
06 12.12 В 1 2000 м 4/0 2000 м
[Ac trans]
+21.4 +18.4 83 +26 +26 душно 1019.5 1017.4 +21.0 +26.9
09 12.12 СВ 2 2000 м 1/0
[Ci fib]
+21.4 +16.5 74 +25 +25 комфорт 1018.8 1016.7
12 12.12 СВ 2 2000 м 1/0
[Ci fib]
+21.2 +16.3 74 +25 +25 комфорт 1018.7 1016.6 +20.8 +26.9
15 12.12 С 2 25 км 9/0 2000 м
[As trans]
+21.5 +15.9 70 +25 +25 комфорт 1019.0 1016.9
18 12.12 С 2 25 км 9/0 2000 м
[As trans]
+24.8 +16.6 60 +28 +32 жарко 1018.4 1016.3 +20.8 +24.8
21 12.12 С 3 25 км 9/0 2000 м
[As trans]
+25.7 +15.4 53 +29 +32 душно 1015.3 1013.2
00 13.12 СВ 3 25 км 10/0 2000 м
[As trans]
+24.0 +15.8 60 +27 +27 жарко 1014.5 1012.4 +20.8 +26.3
03 13.12 СВ 2 2000 м 9/3 1200 м
[Sc diur, vesp As trans]
+22.7 +16.9 70 +27 +27 душно 1015.2 1013.1
06 13.12 СВ 1 2000 м 6/0 2000 м
[As op]
+21.6 +17.4 77 +26 +26 душно 1015.3 1013.2 +20.8 +26.3
09 13.12 Ю 1 2000 м 5/0 2000 м
[Ac und]
+19.6 +16.8 84 +23 +23 комфорт 1015.0 1012.9
12 13.12 Ю 1 2000 м 9/0 2000 м
[As op]
+18.8 +14.3 75 +21 +21 комфорт 1014.8 1012.6 +18.5 +26.3
18 13.12 СЗ 2 25 км 9/9 1200 м
[]
+24.5 +17.9 67 +29 +30 душно 1016.2 1014.1 +18.0 +24.5
00 14.12 СЗ 3 25 км 10/5 1000 м
[Sc As trans]
+24.4 +16.1 60 +28 +28 душно 1014.3 1012.2 +18.0 +26.3
03 14.12 В 1 2000 м 4/1 1200 м
[Sc As trans]
+22.4 +18.2 77 +28 +28 душно 1015.1 1013.0
06 14.12 Ю 1 2000 м 6/4 1000 м
[Sc diur, vesp As trans]
+21.2 +17.6 80 +25 +25 комфорт 1015.4 1013.3 +18.0 +26.3
09 14.12 ЮЗ 1 2000 м 6/4 1200 м
[Sc diur, vesp As trans]
+19.8 +16.4 81 +23 +23 комфорт 1014.7 1012.6
12 14.12 Ю 1 2000 м 9/0
[As op]
+18.2 +15.7 85 +20 +20 1014.0 1011.8 +18.2
15 14.12 ЮВ 1 25 км 9/4 1200 м
[Sc diur, vesp As op]
+18.8 +16.6 87 +21 +21 комфорт 1015.2 1013.1
18 14.12 Ю 1 25 км 9/1 1200 м
[Sc diur, vesp As trans]
+24.2 +19.2 74 +29 +33 душно 1015.5 1013.4 +18.0 +24.2
21 14.12 В 2 30 км 3/1 1200 м
[Sc diur, vesp As trans]
+28.0 +18.3 56 +33 +39 очень
душно
1012.7 1010.6
00 15.12 С 2 30 км 5/4 1000 м
[Sc diur, vesp As trans]
+27.5 +15.6 48 +30 +31 жарко 1012.0 1009.9 +18.0 +29.2
03 15.12 Ю 2 2000 м 1/1 1200 м
[Sc diur, vesp]
+22.6 +17.3 72 +27 +27 душно 1013.5 1011.4
12 15.12 штиль 0 2000 м ясно +14.7 +13.9 95 +14 +14 1013.3 1011.2 +14.7 +29.2
15 15.12 Ю 1 25 км 3/3 1200 м
[Sc diur, vesp]
+15.2 +13.2 88 +16 +16 1014.4 1012.2
18 15.12 С 4 30 км 5/5 1200 м
[Sc diur, vesp]
+23.9 +18.3 71 +28 +31 душно 1014.4 1012.3 +14.4 +24.2
21 15.12 С 4 30 км 1/1 1200 м
[Sc diur, vesp]
+24.9 +15.5 56 +28 +33 жарко 1012.6 1010.5
00 16.12 СВ 2 30 км 3/1 1000 м
[Sc diur, vesp Ci fib]
+23.4 +15.0 59 +27 +28 душно 1012.1 1010.0 +25.5
03 16.12 ЮВ 1 2000 м ясно +20.2 +16.7 80 +24 +24 комфорт 1013.4 1011.3
12 16.12 В 1 2000 м ясно +14.2 +11.4 83 +15 +15 1012.8 1010.7 +14.0 +25.5
15 16.12 Ю 1 25 км ясно +13.4 +9.4 77 +14 +15 1014.2 1012.1
18 16.12 Ю 2 30 км 1/1 1200 м
[Sc diur, vesp]
+25.2 +17.4 62 +29 +37 душно 1015.0 1012.8 +12.4 +25.8
21 16.12 ЮЗ 4 30 км 4/1 1200 м
[Sc diur, vesp Ci fib]
+28.0 +15.1 45 +31 +35 душно 1012.6 1010.5

 

Местоположение метеостанции La Paz (Мексика): широта 24.17 долгота -110.30 высота над уровнем моря 18 м.

В архиве по умолчанию представлена погода в La Paz за последнюю неделю. Архивные данные за месяц целиком и за предыдущие месяцы, начиная с января 2011 года, Вы можете получить, выбрав интересующий диапазон дат из раскрывающегося списка и нажав кнопку "Ввод!".

Внимание! Время в таблицах - всемирное. Для получения местного времени необходимо прибавить поправку, которая в La Paz равна -6 ч.

Смотрите также архив погоды в соседних городах и на ближайших метеорологических станциях:

Погода в Ciudad Constitucion (Мексика) (166 км)
Погода в Loreto (Мексика) (229 км)
Погода в Culiacan (Мексика) (302 км)
Погода в Choix (Мексика) (354 км)
Погода в Ciudad Obregon (Мексика) (361 км)
Погода в Santa Rosalia (Мексика) (397 км)
Погода в Mazatlan (Мексика) (412 км)
Погода в Guaymas (Мексика) (421 км)
Погода в Empalme (Мексика) (422 км)
Погода в Tepehuanes (Мексика) (481 км)

Пояснения к столбцам:

Ветер - указаны скорость ветра в м/с - средняя за 10 мин, порывы в срок и между сроками (в фигурных скобках) и направление, откуда дует ветер: С - северный, СВ - северо-восточный, В - восточный, ЮВ - юго-восточный, Ю - южный, ЮЗ - юго-западный, З - западный, СЗ - северо-западный.
Видимость - горизонтальная дальность видимости в метрах или километрах. При видимости от 1 до 10 км при отсутствии осадков обычно наблюдается дымка, при ухудшении видимости до 1 км и менее - туман. В сухую погоду видимость может ухудшаться дымом, пылью или мглою.
Явления - указаны атмосферные явления, наблюдавшиеся в срок или в последний час перед сроком; фигурными скобками обозначены явления, наблюдавшиеся между сроками (за 1-3 часа до срока); квадратными скобками обозначены град или гололедные отложения с указанием их диаметра в мм.
Облачность - указаны через наклонную черту общая и нижняя облачность в баллах и высота нижней границы облаков в метрах; квадратными скобками обозначены формы облаков: Ci - перистые, Cs - перисто-слоистые, Cc - перисто-кучевые, Ac - высококучевые, As - высокослоистые, Sc - слоисто-кучевые, Ns - слоисто-дождевые, Cu - кучевые, Cb - кучево-дождевые. Подробнее классификацию облаков см. в Атласе облаков (PDF).
T - Температура воздуха - температура, измеренная на высоте 2 м над землей.
Td - Температура точки росы - температура, при понижении до которой содержащийся в воздухе водяной пар достигнет насыщения.
f - Относительная влажность воздуха - влажноcть воздуха, измеренная на высоте 2 м над землей.
Te - Эффективная температура - температура, которую ощущает одетый по сезону человек в тени. Характеристика душности погоды. При расчете учитывается влияние влажности воздуха и скорости ветра на теплоощущения человека.
Tes - Эффективная температура на солнце - температура, которую ощущает человек, с поправкой на солнечный нагрев. Характеристика знойности погоды. Зависит от высоты солнца над горизонтом, облачности и скорости ветра. Ночью, в пасмурную погоду, а также при ветре 12 м/с и более поправка равна нулю.
P - Атмосферное давление - приведенное к уровню моря атмосферное давление.
Po - Атмосферное давление - измеренное на уровне метеостанции атмосферное давление.
Tmin - Минимальная температура - минимум температуры воздуха на высоте 2 м над землей.
Tmax - Максимальная температура - максимум температуры воздуха на высоте 2 м над землей.
R - Количество осадков - Количество выпавших осадков за период времени, мм. При наведении курсора мыши на число - период времени, за который выпало указанное количество осадков.
R24 - Количество осадков - Количество выпавших осадков за 24 часа, мм.
S - Снежный покров - Высота снежного покрова, см. При наведении курсора мыши на число - состояние снежного покрова и степень покрытия местности в баллах.